Regional Weather Roundup
Issued by NWS Albany, NY

Home | Current Version | Previous Version | Graphics & Text | Print | Product List | Glossary Off
Versions: 1 2 3 4 5 6 7 8 9 10 11 12 13 14 15 16 17 18 19 20 21 22 23 24 25 26 27 28 29 30 31 32 33 34 35 36 37 38 39 40 41 42 43 44 45 46 47 48 49 50

000
ASUS41 KALY 020910
RWRALY

NEW YORK STATE HOURLY WEATHER ROUNDUP
NATIONAL WEATHER SERVICE ALBANY NY
500 AM EDT THU JUL 02 2015

NOTE: "FAIR" INDICATES FEW OR NO CLOUDS BELOW 12,000 FEET WITH NO
SIGNIFICANT WEATHER AND/OR NO OBSTRUCTIONS TO VISIBILITY.

NYZ032-033-038>043-046>054-057>066-NYZ062>081-021000-
EAST


CITY           SKY/WX    TMP DP  RH WIND       PRES   REMARKS
ALBANY         PTCLDY    62  55  77 SW5       29.88R
GLENS FALLS    CLEAR     57  54  89 CALM      29.84R
POUGHKEEPSIE   CLEAR     59  57  93 CALM      29.87R
NEWBURGH       CLEAR     61  59  94 SW8       29.89R
MONTGOMERY     CLEAR     58  57  97 SW5       29.88R
WHITE PLAINS   CLEAR     62  58  86 CALM      29.87R
ISLIP          CLEAR     64  58  80 CALM      29.85S
NEW YORK CITY  CLEAR     71  59  65 NW6       29.86S
CENTRAL PARK   CLEAR     70  58  65 CALM      29.90S
$$

NYZ005>009-017-018-044>046-055-056-021000-
CENTRAL


CITY           SKY/WX    TMP DP  RH WIND       PRES   REMARKS
FULTON         MOCLDY    55  52  89 W3        29.90F
SYRACUSE       MOCLDY    60  56  86 NW6       29.89F
ROME           CLOUDY    57  54  89 CALM      29.91S
ELMIRA         MOCLDY    57  56  96 SW5       29.91S FOG
BINGHAMTON     MOCLDY    57  56  96 W5        29.92R
MONTICELLO     PTCLDY    55  54  94 CALM      29.92S
$$

NYZ026>034-041>043-021000-
NORTH


CITY           SKY/WX    TMP DP  RH WIND       PRES   REMARKS
WATERTOWN      MOCLDY    55  53  93 CALM      29.90S
FORT DRUM      NOT AVBL
MASSENA        CLEAR     52  49  89 SW8       29.88R
SARANAC LAKE   CLOUDY    52  49  89 VRB7      29.87S
PLATTSBURGH    CLEAR     57  50  77 W6        29.84R
$$

NYZ001>004-010>016-019>021-021000-
WEST


CITY           SKY/WX    TMP DP  RH WIND       PRES   REMARKS
NIAGARA FALLS  PTCLDY    57  54  89 CALM      29.92R
BUFFALO        MOCLDY    58  54  86 CALM      29.92S
DUNKIRK        CLOUDY    59  58  96 CALM      29.94R
JAMESTOWN      CLOUDY    57  54  88 N3        29.96R
WELLSVILLE     CLOUDY    57  55  93 NW3       29.96S FOG
ROCHESTER      CLOUDY    60  55  83 NW5       29.92S
PENN YAN       CLOUDY    62  57  83 CALM      29.92S
$$

             KEY
       WCI = WIND CHILL INDEX
       VSB = VISIBILITY
       HX  = HEAT INDEX
$$



USA.gov is the U.S. government's official web portal to all federal, state and local government web resources and services.